Date String (YYYY-MM-DD hh:mm:ss) UTC,Instrument flags,Ambient pressure (hPa),Sample flow (lpm),Bypass flow (lpm),Sample temperature (°C),Ambient temperature (°C),ASC tube jacket temperature (°C),LED temperature (°C),Box temperature (°C),Sample RH (%),Span deviation,Mass concentration (μg/m³),Mass concentration (μg/m³),Mass concentration (μg/m³)
DateTimeUTC,F1_M11,P_M11,Q1_M11,Q2_M11,T1_M11,T2_M11,T3_M11,T4_M11,T5_M11,U1_M11,ZSPAN_M11,X0_M11,X2_M11,X1_M11
2022-01-26 14:00:00,,0824.1,5.00,0.00,22.0,21.2,00.0,31.1,23.5,07.7,0000.0,0005.49,0004.21,0004.14
2022-01-26 14:01:00,,0824.1,5.01,0.00,21.9,21.1,00.0,31.0,23.4,07.7,0000.0,0005.53,0004.22,0004.15
2022-01-26 14:02:00,,0824.1,5.00,0.00,21.9,21.5,00.0,31.0,23.5,07.7,0000.0,0005.64,0004.25,0004.16
2022-01-26 14:03:00,,0824.1,5.00,0.00,22.0,22.2,00.0,31.1,23.8,07.6,0000.0,0005.82,0004.25,0004.17
2022-01-26 14:04:00,,0824.1,5.00,0.00,22.2,22.9,00.0,31.1,24.0,07.6,0000.0,0006.07,0004.26,0004.16
2022-01-26 14:05:00,,0824.1,5.01,0.00,22.3,23.1,00.0,31.1,24.1,07.6,0000.0,0006.07,0004.24,0004.15
2022-01-26 14:06:00,,0824.1,4.98,0.00,22.3,22.8,00.0,31.2,24.1,07.6,0000.0,0006.12,0004.25,0004.15
2022-01-26 14:07:00,,0824.1,5.01,0.00,22.2,22.4,00.0,31.2,24.0,07.7,0000.0,0006.13,0004.24,0004.14
2022-01-26 14:08:00,,0824.1,5.00,0.00,22.2,22.1,00.0,31.1,23.8,07.7,0000.0,0006.13,0004.23,0004.12
2022-01-26 14:09:00,,0824.1,5.00,0.00,22.1,21.8,00.0,31.1,23.7,07.7,0000.0,0006.08,0004.20,0004.09
2022-01-26 14:10:00,,0824.1,5.00,0.00,22.0,21.5,00.0,31.1,23.6,07.7,0000.0,0006.05,0004.19,0004.08
2022-01-26 14:11:00,,0824.0,4.99,0.00,22.0,21.3,00.0,31.1,23.5,07.8,0000.0,0006.03,0004.18,0004.07
2022-01-26 14:12:00,,0824.1,5.01,0.00,21.9,21.1,00.0,31.0,23.4,07.9,0000.0,0006.02,0004.17,0004.06
2022-01-26 14:13:00,,0824.0,5.00,0.00,21.9,21.3,00.0,31.0,23.4,07.9,0000.0,0005.91,0004.15,0004.05
2022-01-26 14:14:00,,0824.1,4.99,0.00,22.0,22.0,00.0,31.0,23.7,07.9,0000.0,0005.70,0004.14,0004.05
2022-01-26 14:15:00,,0824.0,5.00,0.00,22.1,22.8,00.0,31.1,24.0,07.8,0000.0,0005.41,0004.12,0004.04
2022-01-26 14:16:00,,0824.0,5.01,0.00,22.3,23.2,00.0,31.1,24.2,07.7,0000.0,0005.31,0004.10,0004.03
2022-01-26 14:17:00,,0824.0,5.00,0.00,22.3,22.8,00.0,31.1,24.1,07.7,0000.0,0005.24,0004.07,0004.00
2022-01-26 14:18:00,,0824.1,5.01,0.00,22.2,22.4,00.0,31.1,23.9,07.7,0000.0,0005.13,0004.03,0003.96
2022-01-26 14:19:00,,0824.0,5.00,0.00,22.1,22.0,00.0,31.1,23.8,07.8,0000.0,0005.05,0004.00,0003.95
2022-01-26 14:20:00,,0824.0,4.99,0.00,22.1,21.7,00.0,31.1,23.7,07.9,0000.0,0005.07,0004.02,0003.96
2022-01-26 14:21:00,,0824.0,4.99,0.00,22.0,21.5,00.0,31.1,23.6,08.0,0000.0,0005.12,0004.03,0003.97
2022-01-26 14:22:00,,0824.1,5.00,0.00,21.9,21.3,00.0,31.1,23.5,08.0,0000.0,0005.14,0004.04,0003.98
2022-01-26 14:23:00,,0824.1,4.99,0.00,21.9,21.2,00.0,31.0,23.4,08.1,0000.0,0005.12,0004.04,0003.99
2022-01-26 14:24:00,,0824.1,5.01,0.00,21.8,21.3,00.0,31.0,23.4,08.1,0000.0,0005.11,0004.04,0004.00
2022-01-26 14:25:00,,0824.1,5.01,0.00,21.9,22.0,00.0,31.0,23.6,08.1,0000.0,0005.12,0004.03,0003.99
2022-01-26 14:26:00,,0824.0,5.00,0.00,22.1,22.7,00.0,31.1,23.9,08.1,0000.0,0005.16,0004.05,0003.99
2022-01-26 14:27:00,,0824.0,4.99,0.00,22.2,23.3,00.0,31.1,24.2,08.0,0000.0,0005.20,0004.07,0004.01
2022-01-26 14:28:00,,0823.9,5.00,0.00,22.3,23.0,00.0,31.1,24.1,08.0,0000.0,0005.20,0004.09,0004.02
2022-01-26 14:29:00,,0823.9,5.00,0.00,22.2,22.6,00.0,31.1,24.0,07.9,0000.0,0005.25,0004.11,0004.05
2022-01-26 14:30:00,,0823.9,5.00,0.00,22.2,22.3,00.0,31.1,23.9,08.0,0000.0,0005.26,0004.12,0004.06
2022-01-26 14:31:00,,0823.9,5.00,0.00,22.1,21.9,00.0,31.1,23.7,08.0,0000.0,0005.31,0004.13,0004.07
2022-01-26 14:32:00,,0823.9,5.00,0.00,22.1,21.6,00.0,31.1,23.6,08.1,0000.0,0005.41,0004.15,0004.06
2022-01-26 14:33:00,,0823.9,5.00,0.00,22.0,21.4,00.0,31.1,23.5,08.1,0000.0,0005.47,0004.14,0004.05
2022-01-26 14:34:00,,0823.9,4.99,0.00,21.9,21.2,00.0,31.0,23.4,08.1,0000.0,0005.48,0004.13,0004.03
2022-01-26 14:35:00,,0823.9,5.00,0.00,21.9,21.2,00.0,31.0,23.4,08.1,0000.0,0005.48,0004.12,0004.01
2022-01-26 14:36:00,,0823.9,5.00,0.00,21.9,22.0,00.0,31.0,23.6,08.1,0000.0,0005.49,0004.13,0004.01
2022-01-26 14:37:00,,0823.9,5.01,0.00,22.1,22.8,00.0,31.1,24.0,08.0,0000.0,0005.44,0004.11,0004.00
2022-01-26 14:38:00,,0823.9,4.99,0.00,22.2,23.1,00.0,31.1,24.1,08.0,0000.0,0005.37,0004.08,0003.97
2022-01-26 14:39:00,,0823.8,4.99,0.00,22.3,22.8,00.0,31.1,24.1,08.0,0000.0,0005.40,0004.09,0003.98
2022-01-26 14:40:00,,0823.9,5.01,0.00,22.2,22.5,00.0,31.1,24.0,08.1,0000.0,0005.51,0004.15,0004.03
2022-01-26 14:41:00,,0823.8,4.98,0.00,22.2,22.2,00.0,31.1,23.9,08.0,0000.0,0005.55,0004.15,0004.03
2022-01-26 14:42:00,,0823.9,5.00,0.00,22.2,21.9,00.0,31.1,23.8,08.0,0000.0,0005.54,0004.14,0004.02
2022-01-26 14:43:00,,0823.9,5.00,0.00,22.1,21.7,00.0,31.1,23.7,08.2,0000.0,0005.52,0004.17,0004.07
2022-01-26 14:44:00,,0823.9,5.00,0.00,22.1,21.6,00.0,31.1,23.6,08.2,0000.0,0005.50,0004.21,0004.11
2022-01-26 14:45:00,,0823.9,5.01,0.00,22.0,21.4,00.0,31.1,23.6,08.2,0000.0,0005.52,0004.24,0004.14
2022-01-26 14:46:00,,0823.9,5.01,0.00,22.0,21.4,00.0,31.1,23.5,08.2,0000.0,0005.58,0004.25,0004.15
2022-01-26 14:47:00,,0823.9,4.98,0.00,22.0,22.0,00.0,31.1,23.7,08.1,0000.0,0005.59,0004.25,0004.16
2022-01-26 14:48:00,,0823.9,5.03,0.00,22.2,23.0,00.0,31.1,24.1,08.1,0000.0,0005.64,0004.27,0004.18
2022-01-26 14:49:00,,0823.9,4.98,0.00,22.4,23.5,00.0,31.2,24.3,08.0,0000.0,0005.62,0004.28,0004.20
2022-01-26 14:50:00,,0823.9,5.00,0.00,22.4,23.2,00.0,31.2,24.3,07.9,0000.0,0005.55,0004.27,0004.20
2022-01-26 14:51:00,,0823.9,4.99,0.00,22.4,22.9,00.0,31.2,24.2,07.9,0000.0,0005.56,0004.24,0004.17
2022-01-26 14:52:00,,0823.9,5.01,0.00,22.4,22.6,00.0,31.2,24.1,07.9,0000.0,0005.54,0004.24,0004.17
2022-01-26 14:53:00,,0823.9,5.00,0.00,22.3,22.3,00.0,31.2,24.0,07.9,0000.0,0005.58,0004.27,0004.21
2022-01-26 14:54:00,,0823.9,5.01,0.00,22.3,22.0,00.0,31.2,23.9,07.9,0000.0,0005.51,0004.23,0004.16
2022-01-26 14:55:00,,0823.8,5.00,0.00,22.2,21.8,00.0,31.2,23.8,07.9,0000.0,0005.45,0004.20,0004.14
2022-01-26 14:56:00,,0823.8,4.99,0.00,22.2,21.6,00.0,31.2,23.7,08.0,0000.0,0005.49,0004.22,0004.15
2022-01-26 14:57:00,,0823.8,5.00,0.00,22.1,21.5,00.0,31.2,23.7,08.0,0000.0,0005.47,0004.22,0004.16
2022-01-26 14:58:00,,0823.8,5.01,0.00,22.1,21.4,00.0,31.2,23.6,08.1,0000.0,0005.54,0004.25,0004.19
2022-01-26 14:59:00,,0823.8,5.00,0.00,22.1,21.9,00.0,31.2,23.8,08.1,0000.0,0005.64,0004.28,0004.22
